TimeEST,TemperatureF,Dew PointF,Humidity,Sea Level PressureIn,VisibilityMPH,Wind Direction,Wind SpeedMPH,Gust SpeedMPH,PrecipitationIn,Events,Conditions,WindDirDegrees,DateUTC
12:53 AM,73.0,69.1,87,29.83,10.0,SSE,5.8,-,N/A,,Clear,160,2013-02-26 05:53:00
1:53 AM,73.0,69.1,87,29.81,9.0,SSE,5.8,-,N/A,,Scattered Clouds,160,2013-02-26 06:53:00
2:53 AM,73.0,70.0,90,29.81,10.0,South,6.9,-,N/A,,Mostly Cloudy,170,2013-02-26 07:53:00
3:53 AM,73.0,70.0,90,29.81,9.0,South,5.8,-,N/A,,Overcast,170,2013-02-26 08:53:00
4:53 AM,73.0,70.0,90,29.80,9.0,South,8.1,-,N/A,,Overcast,170,2013-02-26 09:53:00
5:53 AM,73.9,69.1,85,29.82,10.0,South,8.1,-,N/A,,Overcast,170,2013-02-26 10:53:00
6:53 AM,73.9,69.1,85,29.84,10.0,South,6.9,-,N/A,,Overcast,170,2013-02-26 11:53:00
7:53 AM,75.0,70.0,84,29.85,10.0,South,10.4,-,N/A,,Scattered Clouds,170,2013-02-26 12:53:00
8:53 AM,78.1,70.0,76,29.86,10.0,South,11.5,20.7,N/A,,Clear,180,2013-02-26 13:53:00
9:53 AM,81.0,69.1,67,29.85,10.0,SSW,13.8,26.5,N/A,,Scattered Clouds,200,2013-02-26 14:53:00
10:53 AM,84.9,66.0,53,29.85,10.0,South,20.7,27.6,N/A,,Scattered Clouds,180,2013-02-26 15:53:00
11:53 AM,84.9,64.9,51,29.85,10.0,SSW,19.6,26.5,N/A,,Mostly Cloudy,210,2013-02-26 16:53:00
12:53 PM,84.9,64.0,49,29.83,10.0,SW,18.4,29.9,N/A,,Partly Cloudy,220,2013-02-26 17:53:00
1:53 PM,87.1,64.9,48,29.78,10.0,SW,20.7,34.5,N/A,,Partly Cloudy,220,2013-02-26 18:53:00
2:53 PM,86.0,64.9,49,29.78,10.0,SW,20.7,31.1,N/A,,Overcast,230,2013-02-26 19:53:00
3:53 PM,84.9,66.0,53,29.78,10.0,SW,16.1,31.1,N/A,,Overcast,230,2013-02-26 20:53:00
4:53 PM,82.9,66.0,56,29.79,10.0,SW,13.8,21.9,N/A,,Overcast,230,2013-02-26 21:53:00
5:53 PM,82.0,64.9,56,29.81,10.0,WSW,8.1,-,N/A,,Overcast,240,2013-02-26 22:53:00
6:53 PM,81.0,64.9,58,29.82,10.0,SW,11.5,-,N/A,,Overcast,230,2013-02-26 23:53:00
7:53 PM,79.0,66.9,66,29.83,10.0,SSW,10.4,-,N/A,,Overcast,210,2013-02-27 00:53:00
8:53 PM,78.1,69.1,74,29.86,10.0,WSW,11.5,-,N/A,,Overcast,240,2013-02-27 01:53:00
9:53 PM,75.9,70.0,82,29.88,10.0,West,10.4,-,N/A,,Overcast,270,2013-02-27 02:53:00
10:53 PM,73.9,70.0,87,29.88,10.0,West,8.1,-,N/A,,Overcast,260,2013-02-27 03:53:00
11:53 PM,73.0,66.0,79,29.88,10.0,WSW,6.9,-,N/A,,Overcast,250,2013-02-27 04:53:00